Other Public Products
Issued by NWS Grand Forks, ND

Home | Current Version | Previous Version | Graphics & Text | Print | Product List | Glossary On
Versions: 1 2 3 4 5 6 7 8 9 10 11 12 13 14 15 16 17 18 19 20 21 22 23 24 25 26 27 28 29 30 31 32 33 34 35 36 37 38 39 40 41 42 43 44 45 46 47 48 49 50
000
FPUS83 KFGF 011010
OPUFGF
PRAIRIE TO PINES WEATHER ROUNDUP
NATIONAL WEATHER SERVICE EASTERN NORTH DAKOTA/GRAND FORKS ND
400 AM CST SUN MAR 01 2015

 **SATELLITE DATA USED TO AUGMENT SKY COVER AT AUTOMATED STATIONS**
 *****  WEATHER ACROSS EASTERN NORTH DAKOTA  *****

CITY           SKY/WX    TMP DP  RH WIND       PRES   REMARKS
GRAND FORKS    CLEAR      2  -4  76 W9        30.15F WCI -13
GRAND FORKS AF CLEAR      2  -4  75 W9        30.14F WCI -12
GRAND CITY NWS   N/A      1 N/A N/A W9          N/A  WCI -14
BUXTON         NOT AVBL
DEVILS LAKE    PTCLDY     1  -8  66 W13       30.10F WCI -16
FARGO          CLEAR     -2  -8  76 SW9       30.21S WCI -18
WAHPETON ARPT  SUNNY      0  -6  78 W7        30.23F WCI -13
$$

 *****  WEATHER ACROSS CENTRAL AND WESTERN NORTH DAKOTA  *****

CITY           SKY/WX    TMP DP  RH WIND       PRES   REMARKS
JAMESTOWN      CLEAR      1  -4  79 SW3       30.14F
BISMARCK       CLEAR      5   0  79 SW6       30.18F WCI  -6
MINOT          CLOUDY    11   2  67 W12       30.09F WCI  -3
MINOT AFB      PTCLDY     8   4  81 W12       30.09F WCI  -7
GARRISON         N/A      6   1  80 W8        30.11F WCI  -7
WILLISTON      CLOUDY    12   8  84 SW6       30.14S WCI   3
DICKINSON      PTCLDY    12   5  73 W16       30.10S WCI  -5
HETTINGER      MOCLDY     5   1  83 NW5       30.15S WCI  -4
$$

 *****  OTHER OBSERVATIONS NORTHEAST NORTH DAKOTA  *****

CITY           SKY/WX    TMP DP  RH WIND       PRES   REMARKS
WALHALLA         N/A      5   0  78 W12G17    30.08F WCI -11
LANGDON        NOT AVBL
CAVALIER       FAIR       3   0  85 W9        30.10S WCI -11
GRAFTON        NOT AVBL
CANDO          CLOUDY     0  -4  85 W12       30.09S WCI -18
FORT TOTTEN      N/A      2  -4  75 SW5       29.95S WCI  -8
ROLLA          CLOUDY     7   3  85 W13       30.04S WCI  -9
RUGBY          FAIR       0  -4  85 W5        30.09F WCI -10
 ***** THE ABOVE OBSERVATIONS ARE NON NWS ARE NOT QUALITY
        CONTROLLED AND MAY MIS-REPORT RAIN FOR SNOW...
$$

 *****  OTHER OBSERVATIONS SOUTHEAST NORTH DAKOTA *****

CITY           SKY/WX    TMP DP  RH WIND       PRES   REMARKS
COOPERSTOWN    NOT AVBL
VALLEY CITY    FAIR       1  -2  85 W15       30.16S WCI -18
OAKES            N/A      1  -2  85 SW10      30.21S WCI -14
GWINNER        SUNNY      5   0  78 SW12      30.22S WCI -11
SHEYENNE NWR     N/A     -4 -10  77 W5        29.95S WCI -15
BUFFALO        NOT AVBL
WYNDMERE         N/A      5   0  78 W10         N/A  WCI -10
 ***** THE ABOVE OBSERVATIONS ARE NON NWS ARE NOT QUALITY
       CONTROLLED AND MAY MIS-REPORT RAIN FOR SNOW...
$$

  *****  WEATHER ACROSS NORTHERN MINNESOTA  *****

CITY           SKY/WX    TMP DP  RH WIND       PRES   REMARKS
FLAG ISLAND    CLEAR      1  -2  85 SW8       30.04S WCI -12
WARROAD        CLEAR      1  -4  78 SW7       30.07S WCI -11
ROSEAU         CLEAR      0  -6  78 SW10      30.08S WCI -17
HALLOCK        NOT AVBL
THF RVR FALLS  CLEAR     -6 -20  49 SW6       30.12F WCI -18
HALSTAD        NOT AVBL
FOSSTON        PTCLDY    -9 -13  84 S8        30.14S WCI -26
BAUDETTE       CLEAR      0  -4  83 SW7       30.06F WCI -13
WASKISH        CLOUDY     5   1  85 CALM      30.10S
CROOKSTON      CLEAR     -6  -9  84 S7        30.17S WCI -20
$$
  *****  WEATHER ACROSS CENTRAL AND WEST MINNESOTA  *****

CITY           SKY/WX    TMP DP  RH WIND       PRES   REMARKS
BEMIDJI        MOCLDY     3  -1  82 SW8       30.11F WCI -10
PARK RAPIDS    CLEAR     -2  -5  87 NW6       30.13R WCI -14
WADENA         PTCLDY     3   0  85 W7        30.16R WCI  -9
DETROIT LAKES  PTCLDY     3   0  85 CALM      30.16S
MOORHEAD       CLEAR      1   0  92 SW6       30.21S WCI -10
FERGUS FALLS   CLEAR     -2  -6  84 W6        30.26R WCI -14
ELBOW LAKE     FAIR       2  -1  84 W9        30.21S WCI -12
MORRIS MN      CLEAR      3   0  85 W7        30.22S WCI  -9
STAPLES        CLEAR      7   1  78 W8        30.16S WCI  -6
WHEATON        NOT AVBL
$$
  *****  WEATHER ELSEWHERE ACROSS MINNESOTA  *****

CITY           SKY/WX    TMP DP  RH WIND       PRES   REMARKS
DULUTH         LGT SNOW  11   6  81 SW12      30.12F WCI  -3
INTRNTL FALLS  CLOUDY    11   5  77 W8        30.06R WCI  -1
ELY            NOT AVBL
CLOQUET        FLURRIES  10   7  85 SW8       30.14S WCI  -1
BRAINERD       CLOUDY    14  11  87 S8        30.14F WCI   3
HIBBING        LGT SNOW  13   8  81 S7        30.09S WCI   3
ALEXANDRIA     PTCLDY     7   2  80 W10       30.18R WCI  -8
SAINT CLOUD    CLOUDY    15  11  83 SW7       30.18F WCI   5
MINNEAPOLIS    MOCLDY    16  10  77 S7        30.24F WCI   6
$$

  *****  WEATHER ACROSS SOUTH DAKOTA  *****

CITY           SKY/WX    TMP DP  RH WIND       PRES   REMARKS
SIOUX FALLS    PTCLDY    12   8  84 CALM      30.25S
BROOKINGS      NOT AVBL
WATERTOWN      PTCLDY     1  -3  83 SW6       30.20S WCI -10
HURON          PTCLDY     4   0  83 CALM      30.27S
SISSETON         N/A      6   0  76 W7        30.23F WCI  -6
ABERDEEN       PTCLDY     1  -3  83 SW3       30.23F
MITCHELL       CLEAR      9   5  84 SW6       30.29S WCI  -1
PIERRE         MOCLDY    11   3  70 SW12      30.24S WCI  -3
MOBRIDGE       PTCLDY     3  -1  83 CALM      30.18F
RAPID CITY     CLOUDY    14  10  84 W6        30.19S WCI   5
$$

  *****  SOME WEATHER IN NEARBY STATES *****

CITY           SKY/WX    TMP DP  RH WIND       PRES   REMARKS
GLASGOW MT     PTCLDY    15  11  83 NW8       30.18S WCI   4
GREAT FALLS MT CLOUDY    16   9  74 SW9       30.25S WCI   4
CHEYENNE WY    LGT SNOW  15  11  83 N5        30.02R FOG     WCI   8
SCOTTSBLUFF NE CLOUDY    20  10  65 NE8       30.15R WCI  10
OMAHA NE       MOCLDY    22  14  71 SW5       30.34S WCI  16
DES MOINES IA  FLURRIES  21  17  84 SW3       30.33F
DAVENPORT IA   CLOUDY     8   4  83 CALM      30.38F FOG
CHICAGO IL     PTCLDY    10   7  87 CALM      30.38F FOG
EAU CLAIRE WI  CLOUDY    13   6  74 S9        30.28F WCI   1
LA CROSSE WI   PTCLDY    10   5  80 S6        30.35F WCI   0
$$

  *****  SOME NATIONAL WEATHER *****

CITY           SKY/WX    TMP DP  RH WIND       PRES   REMARKS
LA GUARDIA NY  PTCLDY    24  10  55 CALM      30.69R
RALEIGH NC     FRZ RAIN  29  20  69 NE7       30.60S FOG     WCI  22
ATLANTA GA     CLOUDY    38  34  85 E10       30.48S
NEW ORLEANS LA CLOUDY    57  55  93 E12       30.28R FOG
OKLAHOMA CITY  FRZ DRZL  29  25  85 CALM      30.31S FOG
ALBUQUERQUE NM CLOUDY    34  31  88 CALM      30.04S
SALT LAKE CITY MOCLDY    33  32  96 S3        29.98R
LOS ANGELES CA MOCLDY    51  47  86 E7        29.92S
BOISE ID       CLEAR     28  22  78 CALM      30.10R
SEATTLE WA     MOCLDY    38  29  70 SE5       30.25S
$$

*** WEATHER ACROSS MANITOBA...SASKATCHEWAN AND ONTARIO ***
                ***ONTARIO***

CITY           SKY/WX    TMP DP  RH WIND       PRES   REMARKS
GERALDTON      PTCLDY    10   3  72 S5        30.02F WCI   2
THUNDER BAY    LGT SNOW  16   9  73 SW7       30.12F WCI   6
SIOUX LOOKOUT  LGT SNOW  12   9  85 S6        29.94F WCI   3
TORONTO        CLOUDY    12   7  79 NE3       30.48F
BIG TROUT LK   FLURRIES   7   1  78 W6        29.80F WCI  -3
PICKLE LAKE    NOT AVBL
DRYDEN         FLURRIES  14  12  92 SW12      29.95S WCI   0
KENORA         CRYSTALS   1  -2  85 SW9       30.00S WCI -14
$$
                *** MANITOBA***

CITY           SKY/WX    TMP DP  RH WIND       PRES   REMARKS
BRANDON        MOCLDY     0  -4  85 W13       30.05F WCI -18
DAUPHIN        FLURRIES   7   3  85 W13       30.06S WCI  -9
ISLAND LAKE    FLURRIES   7   1  78 W10       29.89R WCI  -8
PILOT MOUND      N/A      3   0  85 W8          N/A  WCI -10
THE PAS        CLOUDY     7   3  85 NW7       30.06R WCI  -5
THOMPSON       CLEAR     -8 -15  71 W6        29.99R WCI -21
WINNIPEG       PTCLDY     0  -6  78 SW7       30.07S WCI -13
LYNN LAKE      CLEAR     -9 -15  77 NW8       30.00S WCI -26
CHURCHILL      PTCLDY   -15 -22  70 NW21G26   29.88S WCI -42
GILLAM         CLEAR     -9 -17  70 W8        29.93F WCI -26
$$
                ***SASKATCHEWAN***

CITY           SKY/WX    TMP DP  RH WIND       PRES   REMARKS
ESTEVAN        PTCLDY     5   3  92 W12       30.10R WCI -11
KINDERSLEY     PTCLDY     5   1  85 NW8       30.21R WCI  -8
LLOYDMINSTER   CLEAR      5   3  92 W12       30.18S WCI -11
PRINCE ALBERT  PTCLDY     7   3  85 W8        30.14S WCI  -6
REGINA         PTCLDY     1  -2  85 NW6       30.13R WCI -10



USA.gov is the U.S. government's official web portal to all federal, state and local government web resources and services.